Voltar ao catálogo

CZ-4C R/B

AtivoLEO
NORAD 39014·ROCKET BODY·🇨🇳 China

Lançado Nov 25, 2012 de Jiuquan Satellite Launch Center

Loading…

Próximas Passagens (próximas 24 horas)

TLE

AtualizadoSource: Space-Track

Época: Sep 14, 2026, 13:11 UTC

1 39014U 12066D   26257.54972296  .00000675  00000-0  20234-3 0  9990
2 39014  63.3813 197.0924 0633965  12.0368 349.5043 13.72131743690800

Acompanhe CZ-4C R/B em tempo real com AllMySat

Download on the App Store